Location: Arleux
(50.3632°N, 2.8721°E)
Time: 16:56:54
(UTC+00:00)

Timation 1 Rocket - Pass Details

Date: 15 December 2019
Orbit: 897 x 910 km, 70.0° (Epoch: 27 January)

Event Time Altitude Azimuth Distance (km) Brightness Sun altitude
Exits shadow 04:54:41 56° 234° (SW) 1,065 4.4 -25.3°
Maximum altitude 04:55:58 76° 303° (WNW) 930 4.2 -25.1°
Drops below altitude 10° 05:01:58 10° 29° (NNE) 2,591 7.0 -24.2°
Sets 05:04:29 0° 31° (NNE) 3,537 7.7 -23.8°
